Location: Cherry Hinton
(52.1833°N, 0.1833°E)
Time: 06:26:00
(UTC+00:00)

Daily predictions for brighter satellites

Satellite Brightness Start Highest point End
(mag) Time Altitude Azimuth Time Altitude Azimuth Time Altitude Azimuth
IRIDIUM 104 4.4 19:12:41 10° N 19:17:57 83° E 19:23:10 10° S
STARLINK-1203 3.7 19:14:26 10° W 19:18:40 85° N 19:22:53 10° E
STARLINK-1224 3.7 19:15:32 10° W 19:19:42 84° N 19:23:52 10° E
STARLINK-1206 3.0 19:16:59 10° WNW 19:20:07 71° SSW 19:23:13 10° ESE
STARLINK-1247 3.0 19:17:26 10° WNW 19:20:33 71° SSW 19:23:40 10° ESE
STARLINK-1227 3.0 19:17:51 10° WNW 19:20:59 71° SSW 19:24:08 10° ESE
STARLINK-1218 3.0 19:18:20 10° WNW 19:21:27 70° SSW 19:24:33 10° ESE
STARLINK-1226 3.0 19:18:46 10° WNW 19:21:53 70° SSW 19:25:01 10° ESE
MOS 1 4.3 19:16:31 10° SSE 19:22:10 81° ENE 19:27:53 10° NNW
Cosmos 614 Rocket 4.3 19:17:21 10° S 19:22:15 43° ESE 19:27:11 10° NE
STARLINK-1254 3.0 19:19:12 10° WNW 19:22:20 70° SSW 19:25:28 10° ESE
STARLINK-1215 3.0 19:19:42 10° WNW 19:22:49 69° SSW 19:25:55 10° ESE
Cosmos 2074 Rocket 4.1 19:16:49 10° N 19:23:10 89° E 19:29:28 10° S
ERBS 2.9 19:19:55 10° WNW 19:23:13 48° NNE 19:26:31 10° E
STARLINK-1231 3.0 19:20:09 10° WNW 19:23:15 69° SSW 19:26:22 10° ESE
STARLINK-1232 3.0 19:21:03 10° WNW 19:24:10 68° SSW 19:27:16 10° ESE
STARLINK-1217 3.0 19:21:28 10° WNW 19:24:35 68° SSW 19:27:42 10° ESE
STARLINK-1225 3.7 19:20:32 10° W 19:24:42 85° N 19:28:51 10° E
Cosmos 1908 3.6 19:21:11 10° SSE 19:24:50 42° E 19:28:33 10° NNE
STARLINK-1208 3.0 19:21:55 10° WNW 19:25:03 68° SSW 19:28:11 10° ESE
STARLINK-1229 3.0 19:22:24 10° WNW 19:25:31 67° SSW 19:28:37 10° ESE
STARLINK-1271 3.0 19:22:50 10° WNW 19:25:57 67° SSW 19:29:03 10° ESE
STARLINK-1270 3.0 19:23:17 10° WNW 19:26:24 67° SSW 19:29:30 10° ESE
STARLINK-1154 3.0 19:23:44 10° WNW 19:26:51 66° SSW 19:29:57 10° ESE
APEX 4.5 19:20:09 10° NNW 19:26:55 86° WSW 19:32:25 10° SSE
IRIDIUM 114 4.5 19:21:51 10° N 19:27:06 84° W 19:32:20 10° S
STARLINK-1197 3.0 19:24:39 10° WNW 19:27:46 66° SSW 19:30:52 10° ESE
STARLINK-1189 3.0 19:25:06 10° WNW 19:28:12 65° SSW 19:31:17 10° ESE
STARLINK-1198 3.0 19:25:34 10° WNW 19:28:40 65° SSW 19:31:44 10° ESE
STARLINK-1188 3.1 19:25:59 10° WNW 19:29:05 65° SSW 19:32:08 10° ESE
STARLINK-1230 3.6 19:25:31 10° W 19:29:40 87° N 19:33:50 10° E
STARLINK-1235 3.3 19:26:40 10° WNW 19:29:46 56° SSW 19:32:51 10° ESE
STARLINK-1187 3.2 19:27:04 10° WNW 19:30:12 60° SSW 19:33:16 10° ESE
Cosmos 1726 2.2 19:26:44 10° S 19:30:28 88° W 19:34:13 10° N
STARLINK-67 3.8 19:28:28 10° W 19:30:48 30° SSW 19:33:08 10° SE
STARLINK-1199 3.1 19:27:56 10° WNW 19:31:03 64° SSW 19:34:04 11° ESE
STARLINK-1191 3.1 19:28:23 10° WNW 19:31:31 63° SSW 19:34:30 11° ESE
Cosmos 1656 Rocket 4.3 19:26:17 10° NW 19:31:51 59° WSW 19:37:19 10° SSE
STARLINK-1210 3.1 19:28:51 10° WNW 19:31:58 63° SSW 19:34:56 11° ESE
STARLINK-1221 3.1 19:29:18 10° WNW 19:32:27 63° SSW 19:35:23 11° ESE
Cosmos 1943 3.2 19:27:09 10° SSW 19:32:49 86° ESE 19:38:33 10° NNE
STARLINK-1219 3.1 19:29:44 10° WNW 19:32:52 62° SSW 19:35:49 11° ESE
STARLINK-1222 3.1 19:30:12 10° WNW 19:33:19 62° SSW 19:36:15 11° ESE
STARLINK-1211 3.1 19:30:40 10° WNW 19:33:47 62° SSW 19:36:41 11° ESE
STARLINK-1214 3.1 19:31:06 10° WNW 19:34:13 61° SSW 19:37:06 12° ESE
Abrixas rocket 3.0 19:31:36 10° WSW 19:34:19 33° SSW 19:36:49 11° SE
STARLINK-1243 3.6 19:30:29 10° WNW 19:34:39 89° NNE 19:38:41 11° ESE
STARLINK-1245 3.1 19:31:35 10° WNW 19:34:41 61° SSW 19:37:32 12° ESE
STARLINK-1238 3.1 19:32:00 10° WNW 19:35:08 61° SSW 19:37:59 12° ESE
BREEZE-M DEB (TANK) 4.5 19:28:37 10° W 19:35:47 47° SSW 19:38:38 11° SE
Meteor 2-10 4.3 19:30:20 10° SSW 19:35:52 89° WNW 19:41:37 10° NNE
STARLINK-1205 3.1 19:32:57 10° WNW 19:36:02 60° SSW 19:38:51 12° ESE
STARLINK-1204 3.1 19:33:24 10° WNW 19:36:30 59° SSW 19:39:16 12° ESE
STARLINK-29 4.5 19:35:03 10° S 19:37:22 19° SE 19:39:26 11° E
CZ-4 R/B 4.5 19:37:37 10° WSW 19:39:37 14° W 19:41:40 10° WNW
STARLINK-1236 3.6 19:35:27 10° WNW 19:39:38 89° SSE 19:43:28 12° ESE
Cosmos 1610 Rocket 4.5 19:33:50 10° N 19:40:05 81° E 19:46:13 10° SSE
CZ-2C R/B 3.3 19:36:54 10° NNE 19:41:32 32° E 19:46:09 10° SSE
MetOp-A 4.2 19:36:35 10° SSE 19:41:53 67° ENE 19:47:13 10° N
STARLINK-60 3.7 19:39:05 10° SW 19:42:07 35° SSE 19:45:09 10° E
Cosmos 1697 Rocket 4.2 19:39:06 10° NNW 19:43:38 24° NE 19:48:09 10° E
Cosmos 1953 3.5 19:41:01 10° SSW 19:44:52 48° WNW 19:48:47 10° N
Cosmos 407 Rocket 3.5 19:43:49 10° S 19:48:51 58° ESE 19:53:54 10° NNE
Meteor 1-11 4.3 19:43:24 10° NNW 19:49:13 89° WSW 19:54:54 10° S
Terra 3.9 19:47:38 10° ENE 19:49:34 12° NE 19:51:30 10° NNE
STARLINK-1269 3.6 19:45:25 10° WNW 19:49:34 85° SSW 19:53:02 15° ESE
ARGOS 3.6 19:45:03 10° S 19:50:24 67° WSW 19:55:47 10° NNW
STARLINK-1200 3.6 19:50:23 10° WNW 19:54:32 82° SSW 19:57:48 16° ESE
CZ-2C R/B 3.8 19:53:07 10° NNE 19:57:49 60° ESE 20:02:24 10° S
SL-24 R/B - RUBIN 2 4.4 19:53:09 10° SSW 19:58:44 60° SE 20:05:01 10° NE
STARLINK-1192 3.6 19:55:23 10° WNW 19:59:32 80° SSW 20:02:36 18° ESE
SPOT 3 Rocket 3.6 19:55:29 10° SSE 20:00:42 85° WSW 20:05:57 10° NNW
SL-16 R/B 4.5 19:59:33 10° NNW 20:02:15 13° NNE 20:04:58 10° NE
Resurs 1-3 3.6 19:58:45 10° SSE 20:03:08 85° ENE 20:07:33 10° NNW
COSMOS 2455 3.0 19:57:55 10° NW 20:03:59 78° SW 20:09:32 12° SSE
STARLINK-1201 3.6 20:01:11 10° W 20:04:21 45° SSW 20:06:17 20° SE
STARLINK-1244 3.6 20:00:22 10° WNW 20:04:31 77° SSW 20:07:23 19° ESE
STARLINK-1228 4.1 20:03:22 10° W 20:05:46 27° SSW 20:07:12 17° SSE
Cosmos 1656 4.4 20:01:49 10° NNW 20:07:14 42° NE 20:11:09 18° ESE
STARLINK-1138 3.6 20:05:21 10° WNW 20:09:29 74° SSW 20:12:10 21° ESE
SL-08 RB Rocket 4.4 20:05:22 10° S 20:09:52 56° W 20:14:26 10° NNW
MOS 1 Rocket 3.7 20:05:37 10° NNE 20:10:57 59° E 20:16:20 10° S
Cosmos 1023 Rocket 4.4 20:05:50 10° SSW 20:10:57 67° ESE 20:16:04 10° NNE
Cosmos 1455 4.3 20:13:23 12° ENE 20:13:23 12° ENE 20:14:40 10° ENE
FALCON 9 DEB 3.9 20:09:51 10° SSW 20:13:00 31° SSE 20:14:16 24° ESE
Cosmos 1980 Rocket 3.8 20:08:54 10° NNW 20:13:18 23° NE 20:17:17 12° E
Cosmos 1954 Rocket 4.2 20:08:35 10° S 20:13:36 48° ESE 20:18:36 10° NE
STARLINK-1143 3.6 20:10:19 10° WNW 20:14:27 72° SSW 20:16:57 23° ESE
Cosmos 1892 3.6 20:11:59 10° N 20:15:31 32° ENE 20:17:06 23° ESE
IGS 5A 4.4 20:13:40 21° ESE 20:15:39 31° ENE 20:19:19 10° N
Cosmos 1818 4.0 20:10:27 10° SW 20:15:52 66° NW 20:21:20 10° NE
ATLAS CENTAUR R/B 2.8 20:13:43 10° NNW 20:17:06 25° NNE 20:19:27 15° ENE
STARLINK-52 3.8 20:14:46 10° SSW 20:17:38 30° SSE 20:18:09 29° SE
Cosmos 2058 Rocket 3.2 20:14:39 10° SSW 20:19:10 84° W 20:23:42 10° N
STARLINK-1241 3.7 20:15:20 10° WNW 20:19:28 69° SSW 20:21:46 25° ESE
BREEZE M DEB (TANK) 3.9 20:18:08 10° SSW 20:21:31 31° SE 20:29:49 10° ENE
Cosmos 2341 Rocket 4.1 20:15:46 10° N 20:22:12 89° E 20:28:37 10° S
Cosmos 1825 3.9 20:20:01 10° NNE 20:22:40 18° ENE 20:23:21 17° E
CZ-4C R/B 3.5 20:16:50 10° NW 20:23:06 44° NNE 20:29:18 15° E
ATLAS 5 CENTAUR R/B 1.5 20:20:08 10° SW 20:24:20 71° SE 20:29:09 10° NE
SPOT 1/Viking Rocket 4.2 20:21:22 21° ESE 20:24:21 41° ENE 20:29:15 10° N
STARLINK-1239 3.7 20:20:17 10° WNW 20:24:25 66° SSW 20:26:31 27° SE
Cosmos 1726 Rocket 4.5 20:20:08 10° SSW 20:24:27 51° WNW 20:28:50 10° N
Cosmos 1763 Rocket 3.7 20:22:59 10° NNW 20:28:07 54° ENE 20:30:58 25° SE
STARLINK-1240 3.7 20:25:17 10° WNW 20:29:23 63° SSW 20:31:18 29° SE
Cosmos 921 Rocket 3.9 20:26:14 10° NNW 20:30:13 44° WSW 20:34:07 11° S
STARLINK-1216 3.8 20:30:16 10° WNW 20:34:21 60° SSW 20:36:05 32° SE
Aureole 1 Rocket 4.3 20:27:20 10° SSW 20:34:28 70° WNW 20:39:57 10° NNE
Cosmos 540 Rocket 4.4 20:29:46 10° NNW 20:34:32 35° NE 20:36:54 23° E
Cosmos 2218 Rocket 4.0 20:28:42 10° N 20:34:56 73° ENE 20:39:41 18° SSE
Resurs 01 Rocket 1.9 20:31:54 14° S 20:35:42 67° WSW 20:40:07 10° NNW
H-2A R/B 4.2 20:32:22 10° SSW 20:36:33 25° W 20:40:42 10° NW
SeaSat 1 4.3 20:34:14 10° NNE 20:38:38 33° NW 20:43:01 10° WSW
Cosmos 1174 4.0 20:35:01 10° NW 20:39:00 85° SW 20:41:25 29° SE
STARLINK-1237 3.9 20:35:13 10° WNW 20:39:18 57° SSW 20:40:51 34° SE
Cosmos 1300 2.6 20:35:33 10° S 20:39:21 87° W 20:43:13 10° N
Iridium 4 Rocket 3.1 20:36:07 10° N 20:40:16 55° E 20:41:55 32° SE
USA 234 3.8 20:37:07 10° ENE 20:42:58 34° SE 20:48:46 10° SSW
In-Cosmos 22 Rocket 4.3 20:37:32 10° NNW 20:43:26 87° ENE 20:47:33 20° SSE
STARLINK-1202 3.9 20:40:15 10° WNW 20:44:17 54° SSW 20:45:40 36° SSE
Landsat 7 3.9 20:42:04 29° SE 20:44:22 61° ENE 20:49:04 10° N
SAR-Lupe-2 3.5 20:41:21 10° NNE 20:44:55 60° ESE 20:46:11 35° SSE
Cosmos 220 Rocket 4.1 20:41:57 10° NNW 20:46:16 71° WSW 20:48:32 27° S
Cosmos 2082 Rocket 4.2 20:49:07 11° ENE 20:49:07 11° ENE 20:49:40 10° ENE
Cosmos 1812 Rocket 3.5 20:46:09 27° SSE 20:48:22 61° E 20:52:40 10° NNE
ATLAS 2AS CENTAUR R/B 4.3 20:42:48 10° NW 20:49:03 29° WSW 20:54:53 10° S
SL-8 Rocket 4.1 20:42:52 10° NNW 20:49:12 80° W 20:54:31 15° S
RESURS DK-1 2.7 20:46:26 10° NNW 20:50:32 54° NE 20:51:45 38° ESE
USA 245 4.4 20:46:40 23° SSE 20:50:36 83° ENE 20:57:07 10° NNW
Cosmos 864 Rocket 4.4 20:45:01 10° N 20:51:17 85° E 20:55:29 22° SSE
SL-4 R/B 1.4 20:48:21 10° WSW 20:51:46 78° S 20:52:29 53° E
Cosmos 2058 2.8 20:48:09 10° N 20:52:17 88° W 20:54:05 33° S
Cosmos 1140 Rocket 4.0 20:48:37 10° SW 20:53:45 62° WNW 20:58:53 10° NNE
STARLINK-1246 4.0 20:50:11 10° WNW 20:54:12 48° SSW 20:55:12 39° SSE
Cosmos 2181 Rocket 3.9 20:48:08 10° S 20:54:23 85° E 21:00:35 10° N
Cosmos 1340 Rocket 4.4 20:50:51 10° SW 20:54:37 36° WNW 20:58:22 10° N
Cosmos 1833 Rocket 3.9 20:56:29 22° E 20:56:29 22° E 20:59:54 10° NE
MetOp-B 4.3 20:53:18 21° S 20:56:56 74° WSW 21:02:19 10° NNW
USA 32 4.2 20:51:47 10° N 20:56:56 53° ENE 20:58:48 35° SE
Cosmos 2151 3.3 20:53:51 10° N 20:57:56 48° ENE 20:58:42 42° ESE
STARLINK-1203 4.2 20:54:19 10° WNW 20:58:20 44° SSW 20:59:15 38° S
STARLINK-1224 4.1 20:55:12 10° WNW 20:59:10 46° SSW 21:00:00 40° S
ERBS 2.8 20:56:19 10° WNW 20:59:34 45° SW 20:59:49 44° SSW
Meteor 2-10 Rocket 4.1 20:58:38 35° ESE 20:59:47 39° E 21:04:48 10° NNE
Spot 2 Rocket 3.6 20:59:39 26° S 21:02:37 75° WSW 21:07:45 10° NNW
Cosmos 2366 rocket 4.0 20:56:35 10° NNW 21:02:44 79° W 21:06:59 21° S
BREEZE-M DEB (TANK) 2.7 21:00:10 10° WSW 21:02:12 31° WSW 21:02:12 31° WSW
STARLINK-1225 4.2 21:00:12 10° WNW 21:04:09 43° SSW 21:04:48 40° S
Cosmos 1850 Rocket 4.0 21:02:16 30° S 21:04:36 54° ESE 21:09:39 10° NNE
Cosmos 841 Rocket 3.6 21:01:09 10° NNW 21:06:25 63° ENE 21:08:12 40° SE
STARLINK-1230 4.2 21:05:10 10° W 21:09:05 41° SSW 21:09:34 39° SSW
Cosmos 1076 Rocket 3.9 21:04:53 10° NNW 21:09:07 60° W 21:11:04 30° SSW
COSMOS 2406 3.5 21:08:16 36° SSE 21:09:53 45° ESE 21:15:19 10° NE
Cosmos 1408 2.4 21:07:56 10° N 21:11:36 71° ENE 21:11:46 70° ESE
STARLINK-29 4.1 21:09:56 10° WSW 21:11:57 35° SW 21:11:57 35° SW
STARLINK-1243 4.3 21:10:10 10° W 21:14:02 38° SSW 21:14:20 38° SSW
Cosmos 1408 Rocket 4.3 21:10:28 10° N 21:14:36 36° ENE 21:14:53 35° E
CZ-4B DEB 4.4 21:17:31 76° WSW 21:17:36 77° WSW 21:21:00 10° NNW
Nadezhda 3 Rocket 4.3 21:15:55 37° SE 21:17:49 49° E 21:23:49 10° NNE
Cosmos 468 Rocket 4.4 21:13:04 10° NNW 21:18:09 57° WSW 21:20:19 32° S
STARLINK-60 3.3 21:15:01 10° W 21:17:50 63° W 21:17:50 63° W
STARLINK-1236 4.4 21:15:09 10° W 21:18:58 36° SSW 21:19:07 36° SSW
CZ-2C R/B 3.6 21:17:04 10° N 21:22:00 46° WNW 21:26:56 10° SW
SPOT 5 2.5 21:22:33 61° SE 21:23:13 75° ENE 21:27:33 10° NNW
Cosmos 2369 3.6 21:19:57 10° NNW 21:25:38 78° ENE 21:27:19 47° SE
Terra 1.9 21:25:37 53° ESE 21:26:25 62° ENE 21:31:08 10° N
Cosmos 1570 Rocket 4.0 21:21:26 10° NNW 21:26:50 81° WSW 21:28:26 47° SSE
Cosmos 1697 Rocket 2.6 21:22:45 10° NNW 21:28:29 82° ENE 21:30:07 49° SE
ERS-1 Rocket 2.9 21:27:10 47° S 21:28:40 84° WSW 21:33:45 10° NNW
Cosmos-2242 2.8 21:33:27 74° SE 21:33:37 76° E 21:38:00 10° NNE
Meteor 2-1 Rocket 4.5 21:31:08 18° SSW 21:35:36 73° WNW 21:41:35 10° N
Cosmos 2239 Rocket 4.4 21:32:45 10° N 21:39:02 76° ENE 21:40:56 47° SSE
Cosmos 1821 Rocket 4.0 21:37:21 10° N 21:43:47 90° NE 21:45:57 45° S
Cosmos 1934 Rocket 4.0 21:40:25 10° N 21:46:40 64° ENE 21:48:02 51° SE
Cosmos 1455 2.4 21:48:16 67° NW 21:48:16 67° NW 21:51:53 10° N
SL-16 R/B 3.5 21:43:17 10° NNW 21:48:19 31° NE 21:50:12 25° ENE
Cosmos 1356 Rocket 3.5 21:48:19 67° WSW 21:48:43 73° WNW 21:52:58 10° N
Cosmos 2084 4.3 21:44:26 10° NW 21:48:43 43° NNE 21:49:18 41° NE
Cosmos 2360 Rocket 4.2 21:45:48 10° NNW 21:49:57 20° NNE 21:53:01 14° ENE
Cosmos 1656 4.4 21:45:35 10° NW 21:50:59 45° WSW 21:52:36 36° SSW
Cosmos 1892 4.5 21:47:50 10° NNW 21:51:08 26° W 21:52:06 23° WSW
Cosmos 2322 Rocket 3.5 21:51:02 10° NNW 21:56:00 30° NE 21:57:48 25° ENE
ATLAS CENTAUR R/B 1.8 21:52:30 10° NW 21:55:38 52° WNW 21:55:38 52° WNW
Mayak 0.1 21:54:00 10° NNE 21:56:22 29° NE 21:56:22 29° NE
Cosmos 1980 Rocket 2.1 21:52:34 10° NNW 21:58:14 79° ENE 21:59:03 65° ESE
Cosmos 1825 3.0 21:54:48 10° NNW 21:58:10 47° WNW 21:58:10 47° WNW
CARTOSAT-1 4.2 22:00:00 45° WSW 22:00:21 46° W 22:04:33 10° NNW
Cosmos 1741 Rocket 4.4 21:58:32 22° SW 22:02:00 62° WNW 22:07:19 10° NNE
Meteor 2-3 Rocket 3.6 21:56:32 10° NNW 22:02:20 85° ENE 22:03:10 66° SSE
Cosmos 1605 Rocket 4.1 21:57:01 10° N 22:03:04 57° ENE 22:03:58 52° ESE
Spot 4 4.5 22:07:05 43° ENE 22:07:05 43° ENE 22:11:32 10° N
Thor Agena Rocket 4.3 22:04:08 10° NNE 22:07:59 39° ENE 22:07:59 39° ENE
ATLAS 5 CENTAUR R/B 3.4 22:05:18 10° W 22:09:23 33° NNW 22:14:04 10° NE
Cosmos 1766 Rocket 4.3 22:07:58 10° NNW 22:12:15 45° W 22:12:29 44° WSW
CZ-4C R/B 2.8 22:05:20 10° NW 22:12:21 82° SW 22:14:28 53° SSE
ALOS 2 4.1 22:16:03 26° NE 22:16:03 26° NE 22:19:17 10° N
Cosmos 540 Rocket 4.1 22:11:21 10° NW 22:16:16 45° WSW 22:16:44 44° WSW
Cosmos 836 Rocket 4.5 22:12:40 10° NNW 22:17:57 69° ENE 22:18:02 69° ENE
Cosmos 2360 4.4 22:17:00 10° NW 22:22:37 59° WSW 22:23:03 57° SW
Cosmos 1500 Rocket 4.0 22:18:41 10° N 22:22:11 56° N 22:22:11 56° N
USA 234 3.1 22:19:58 10° ENE 22:26:34 83° SSE 22:33:08 10° WSW
Cosmos 1633 4.4 22:23:07 10° N 22:24:56 27° N 22:24:56 27° N
Cosmos 2278 3.9 22:21:46 10° NW 22:27:20 58° WSW 22:27:38 57° SW
RESURS DK-1 4.4 22:25:04 10° WNW 22:27:39 21° W 22:27:39 21° W
Cosmos 2082 Rocket 2.3 22:30:55 62° ENE 22:30:55 62° ENE 22:35:55 10° NE
SL-4 R/B 4.5 22:27:50 10° W 22:28:05 12° W 22:28:05 12° W
ASTEX 1 3.7 22:37:03 58° W 22:37:03 58° W 22:41:56 10° NNW
Cosmos 1833 Rocket 2.7 22:38:06 62° WSW 22:38:57 75° WNW 22:44:38 10° NNE
Cosmos 2344 4.3 22:34:50 10° NW 22:44:07 77° SW 22:48:33 45° SSE
Cosmos 2219 Rocket 4.3 22:43:37 10° NNW 22:47:45 20° NNE 22:50:59 13° ENE
Helios 1A 4.5 22:50:00 31° NNE 22:50:00 31° NNE 22:52:48 10° N
Cosmos 1346 Rocket 4.4 22:47:44 10° N 22:50:08 31° NNE 22:50:08 31° NNE
Cosmos 1607 4.2 22:55:17 54° E 22:55:17 54° E 23:00:22 10° NE
COSMOS 2406 4.3 22:50:12 17° WSW 22:54:17 42° NW 22:59:44 10° NNE
Meteor 1-27 4.3 22:55:28 70° WSW 22:55:51 73° WNW 23:01:43 10° N
Cosmos 1486 Rocket 4.3 22:58:40 59° NE 22:58:40 59° NE 23:02:58 10° NNE
Terra 3.7 23:04:29 21° W 23:04:35 21° W 23:08:11 10° NW
Cosmos 968 Rocket 4.1 23:06:04 49° NE 23:06:04 49° NE 23:10:00 10° NNE
Cosmos 2221 3.7 23:11:04 41° NNW 23:11:04 41° NNW 23:14:17 10° N
Cosmos 1697 Rocket 4.4 23:07:42 10° NW 23:11:47 21° W 23:11:51 21° WSW
Cosmos 1459 Rocket 4.0 23:06:24 10° N 23:12:47 70° ENE 23:12:56 70° E
COSMOS 2428 4.5 23:08:30 10° NNW 23:13:13 26° NE 23:15:49 19° ENE
NOSS 2-1 (C) 4.3 23:17:31 10° NW 23:21:45 70° NW 23:21:45 70° NW
Cosmos 1727 Rocket 3.9 23:24:37 83° WSW 23:24:45 83° W 23:31:08 10° N
NOSS 2-1 (D) 4.3 23:21:45 10° NW 23:25:54 67° NW 23:25:54 67° NW
Cosmos 2016 Rocket 4.0 23:25:07 10° N 23:31:29 68° ENE 23:31:34 68° E
Cosmos 1725 Rocket 4.2 23:25:39 10° N 23:31:54 57° ENE 23:32:04 57° E
SL-16 R/B 2.5 23:27:15 10° NW 23:32:03 59° WNW 23:32:03 59° WNW
Mayak 0.7 23:29:56 10° N 23:32:56 25° NW 23:32:56 25° NW
Cosmos 2360 Rocket 2.4 23:29:25 10° NNW 23:34:45 65° NE 23:34:45 65° NE
Cosmos 1802 Rocket 3.9 23:29:22 10° N 23:35:30 82° NE 23:35:30 82° NE
Nimbus 7 Rocket 4.3 23:30:14 10° NNE 23:35:57 83° N 23:35:57 83° N
Cosmos 1241 Rocket 4.4 23:31:22 10° NW 23:37:17 79° WNW 23:37:17 79° WNW
Sich 1 4.5 23:34:51 10° NNW 23:37:39 35° NW 23:37:39 35° NW
Cosmos 2100 Rocket 3.9 23:33:03 10° NNW 23:39:10 75° W 23:39:10 75° W
Cosmos 2322 Rocket 2.5 23:34:55 10° NW 23:39:36 58° WNW 23:39:36 58° WNW
Cosmos 1980 Rocket 3.9 23:37:28 10° NW 23:40:49 21° W 23:40:49 21° W
MOS 1-B Rocket 4.3 23:37:15 10° NNE 23:43:26 64° ESE 23:43:26 64° ESE
Cosmos 2123 Rocket 4.3 23:45:08 53° E 23:45:08 53° E 23:50:49 10° NNE
SL-08 R/B 4.5 23:40:19 10° N 23:46:33 73° ENE 23:46:33 73° ENE
Cosmos 2173 Rocket 4.0 23:40:31 10° NNW 23:46:21 71° WNW 23:46:21 71° WNW
ALOS 2 4.2 23:53:27 30° NW 23:53:27 30° NW 23:55:59 10° NNW
Cosmos 1354 Rocket 4.4 23:52:40 60° N 23:52:40 60° N 23:57:06 10° NNE
Cosmos 2333 Rocket 3.1 23:48:29 10° NNW 23:53:53 43° NE 23:54:44 40° ENE
ATLAS 5 CENTAUR R/B 4.2 23:51:28 10° NW 23:55:26 24° N 23:59:55 10° NE
